Regional Weather Roundup
Issued by NWS Mt. Holly, NJ

Home | Current Version | Previous Version | Text Only | Print | Product List | Glossary On
Versions: 1 2 3 4 5 6 7 8 9 10 11 12 13 14 15 16 17 18 19 20 21 22 23 24 25 26 27 28 29 30 31 32 33 34 35 36 37 38 39 40 41 42 43 44 45 46 47 48 49 50
000
ASUS41 KPHI 271211
RWRPHI

REGIONAL WEATHER ROUNDUP
NATIONAL WEATHER SERVICE MOUNT HOLLY NJ
700 AM EST FRI FEB 27 2015

NOTE:  "FAIR" INDICATES FEW OR NO CLOUDS BELOW 12,000 FEET WITH NO
SIGNIFICANT WEATHER AND/OR OBSTRUCTIONS TO VISIBILITY.

 * = STATION DOES NOT REPORT PRECIPITATION (E.G. RAIN, SNOW, ETC.)
        OR FOG.

NJZ015>026-271300-
SOUTHERN NEW JERSEY

CITY           SKY/WX    TMP DP  RH WIND       PRES   REMARKS
POMONA         PTCLDY    18  12  77 N7        30.30R WCI   9
6HR MIN TEMP:  10; 6HR MAX TEMP:  18;

RIO GRANDE*    CLEAR     19  12  73 N6        30.30R WCI  11
MILLVILLE      MOCLDY    22  13  68 N7        30.30R WCI  13
WRIGHTSTOWN    CLOUDY    19  12  73 N10       30.30R WCI   8
MOUNT HOLLY    CLOUDY    21  12  68 N8        30.33R WCI  11
TRENTON        CLOUDY    19   7  59 N9        30.32R WCI   8
6HR MIN TEMP:  19; 6HR MAX TEMP:  21;


$$
NJZ001>014-271300-
NORTHERN NEW JERSEY

CITY           SKY/WX    TMP DP  RH WIND       PRES   REMARKS
SUSSEX         MOCLDY     9   1  70 VRB3      30.31R
ANDOVER*         N/A      9   2  73 N5        30.31R WCI   1
MORRISTOWN     CLOUDY    16   7  67 N3        30.33R
NEWARK         CLOUDY    18   7  62 N10       30.34R WCI   6
TETERBORO      CLOUDY    17   5  59 N7        30.33R WCI   8
CALDWELL       MOCLDY    15   5  64 CALM      30.34R
SOMERVILLE     CLOUDY    17   4  56 NW7       30.32R WCI   8
ALLAIRE*       CLOUDY    19  10  68 NW7       30.30R WCI  10
TOMS RIVER*    CLOUDY    19  12  73 N7        30.31S WCI  10

$$
PAZ043-044-047-054-055-060>062-066>071-271300-
EASTERN PENNSYLVANIA

CITY           SKY/WX    TMP DP  RH WIND       PRES   REMARKS
PHILADELPHIA   LGT SNOW  23  16  74 N10       30.34R WCI  12
6HR MIN TEMP:  23; 6HR MAX TEMP:  27; 6HR PCP: TRACE;

NORTH PHILA    CLOUDY    22  11  62 N10       30.35R WCI  11
BLUE BELL      CLOUDY    23  14  68 CALM      30.31R
DOYLESTOWN     CLOUDY    17   7  64 N7        30.31R WCI   8
QUAKERTOWN*    CLOUDY    18   7  62 N7        30.31R WCI   8
POTTSTOWN      CLOUDY    18   8  65 N6        30.34R WCI  10
LANCASTER      LGT SNOW  18  13  80 NE7       30.31R WCI   9
COATESVILLE    FLURRIES  19  14  79 N6        30.29R WCI  11
READING        CLOUDY    17   5  59 N9        30.33R WCI   6
6HR MIN TEMP:  17; 6HR MAX TEMP:  23;

ALLENTOWN      CLOUDY    15   3  59 NW5       30.33R WCI   8
6HR MIN TEMP:  15; 6HR MAX TEMP:  19;

MOUNT POCONO   CLEAR      4  -2  76 NW9       30.16R WCI -10
6HR MIN TEMP:   4; 6HR MAX TEMP:   9;

HAZLETON       FLURRIES   9   1  72 NW6       30.25R WCI  -1
WILKES BARRE   PTCLDY     8   0  69 CALM      30.30R

$$
DEZALL-MDZ008-012-015-019-020-271300-
DELAWARE AND EASTERN MARYLAND

CITY           SKY/WX    TMP DP  RH WIND       PRES   REMARKS
WILMINGTON     LGT SNOW  23  18  81 N10       30.33R WCI  12
6HR MIN TEMP:  23; 6HR MAX TEMP:  28; 6HR PCP: TRACE;

DOVER          MOCLDY    25  22  91 N9        30.30R WCI  15
GEORGETOWN     PTCLDY    20  14  77 CALM      30.29R HAZE
6HR MIN TEMP:  17; 6HR MAX TEMP:  32;

EASTON         CLOUDY    28  27  93 CALM      30.33R
ABERDEEN       LGT SNOW  27  25  93 N5        30.31R FOG     WCI  21
PATUXENT       CLOUDY    28  24  85 CALM      30.29R
OCEAN CITY     MOCLDY    17  15  92 NW5       30.28R FOG     WCI  10
WALLOPS ISLAND CLOUDY    21  19  92 NE3       30.28R
CAMBRIDGE      MOCLDY    28  25  86 CALM      30.28R
SALISBURY      CLOUDY    24  19  81 N3        30.28R HAZE

$$
PAZ001-021-NYZ056-072-MDZ011-DCZ001-271300-
OTHER NEARBY LOCATIONS

CITY           SKY/WX    TMP DP  RH WIND       PRES   REMARKS
HARRISBURG     PTCLDY    18   8  65 NW6       30.34R WCI  10
STATE COLLEGE  LGT SNOW  12   9  85 CALM      30.30R
WILLIAMSPORT   PTCLDY    11   0  61 NW3       30.36R
BINGHAMTON     CLEAR      1  -2  87 W5        30.22R WCI  -9
NEW YORK CITY  CLOUDY    18   4  54 VRB5      30.34R WCI  11
BALTIMORE      MOCLDY    27  22  81 NW6       30.29R HAZE    WCI  20
WASHINGTON DC  CLOUDY    33  22  63 N13       30.31R WCI  24

$$



USA.gov is the U.S. government's official web portal to all federal, state and local government web resources and services.